RH
20 21 22 23 24 25 26 28 29 32 36 39 39 39 39 39 41 44 48 50 50 48 47 48 49 49 49 52 53 53 55 55 56 56 54 54 54 55 59 61 67 72 60 41 37 43 49 50 47 45 43 40 39 39 37 34 31 29 26 25 24 23 23
20 21 23 23 24 25 27 29 31 34 39 43 43 42 42 42 44 47 50 53 52 50 49 49 50 50 50 51 53 54 56 56 57 59 58 60 64 67 71 75 76 80 78 61 44 47 56 55 51 51 49 45 41 42 40 35 33 32 30 29 28 27 25
21 21 22 23 24 25 27 30 33 36 41 44 45 45 46 45 47 49 52 55 55 52 52 51 50 50 51 52 54 55 57 59 58 61 66 71 77 82 83 85 84 84 86 77 61 57 63 64 58 56 58 53 45 43 42 36 32 33 34 33 31 30 28
21 21 21 22 23 25 28 31 33 37 40 44 48 50 50 49 49 51 54 56 56 53 52 51 50 51 52 54 57 58 58 61 63 68 77 84 88 90 89 87 85 83 83 82 74 67 69 71 66 61 63 60 49 43 42 38 35 36 37 37 36 36 34
21 21 21 22 23 25 29 32 34 37 40 45 51 55 55 53 52 53 55 56 55 52 49 50 50 51 54 56 58 60 63 69 76 82 90 94 93 92 90 87 85 82 81 82 80 75 73 76 75 69 64 61 54 45 42 41 41 39 38 39 42 43 41
21 21 22 22 24 27 30 33 36 38 41 46 54 58 58 56 56 56 56 54 52 50 49 50 51 53 56 59 62 68 76 84 91 95 97 96 92 89 88 86 84 82 82 82 82 80 80 83 84 75 65 59 53 49 49 50 46 41 40 45 50 50 46
21 22 23 23 25 28 31 35 38 40 42 46 51 55 56 56 58 57 54 51 50 50 51 53 55 58 61 66 74 83 91 96 98 97 95 91 88 85 84 83 83 82 83 83 83 83 85 87 84 74 62 54 55 60 61 59 57 54 49 50 52 49 46
22 22 23 24 26 30 34 37 40 41 44 45 48 52 53 54 55 54 53 53 55 59 64 67 69 70 74 83 91 94 96 96 94 91 88 84 82 82 83 84 85 85 86 86 87 88 88 87 82 70 58 53 63 74 70 64 73 75 61 51 48 44 44
22 23 23 25 28 33 36 39 41 43 45 46 48 50 49 51 55 58 62 66 70 74 78 81 81 81 83 88 92 93 92 88 84 82 81 81 81 84 87 89 90 91 90 90 92 91 89 90 86 73 65 65 72 81 81 78 82 77 59 50 49 42 40
23 23 24 27 32 36 39 42 44 45 47 49 51 53 57 65 70 74 80 84 87 89 87 86 85 83 85 86 86 87 85 82 81 82 84 86 89 91 94 95 96 96 96 96 97 92 91 98 97 83 78 80 79 84 89 84 76 67 57 58 61 50 39
23 24 26 30 36 40 43 45 47 48 50 51 54 62 74 85 91 95 97 98 99 99 97 95 92 89 91 92 90 88 87 87 89 91 96 99 100 100 100 100 100 100 99 100 99 96 97 103 102 92 90 92 90 88 85 75 70 71 72 75 78 70 54
24 25 30 36 41 45 47 49 51 52 53 55 62 78 92 96 97 100 102 102 103 102 101 100 99 98 98 97 96 95 93 94 96 97 100 101 100 100 99 96 95 97 100 102 101 100 100 101 101 100 98 95 89 83 78 74 75 79 85 90 91 87 73
25 28 35 42 47 50 52 55 56 57 59 61 66 80 92 93 90 94 99 102 102 101 101 100 100 100 99 98 99 99 98 99 99 98 97 96 95 94 91 85 81 83 91 95 98 102 102 100 100 98 91 83 77 76 78 79 79 79 88 98 99 96 88
27 33 42 48 52 56 58 61 64 65 67 70 72 77 85 88 92 97 101 102 102 101 101 101 101 101 101 100 101 101 101 101 100 98 96 94 91 86 82 78 73 70 72 75 80 87 86 83 84 81 77 73 72 75 78 82 87 88 94 101 102 102 99
32 40 49 54 58 62 64 67 71 73 76 79 81 83 87 91 97 101 101 101 101 101 101 100 99 100 100 100 100 100 99 98 96 94 91 88 84 79 76 75 73 71 71 68 69 72 71 71 72 72 74 73 73 77 82 90 98 98 99 102 100 99 99
39 47 54 60 65 68 70 71 76 80 83 85 86 88 90 92 95 98 98 97 94 94 95 95 93 94 95 97 97 95 95 95 93 90 85 80 77 78 80 79 77 76 75 76 79 77 72 72 72 73 79 82 85 92 97 100 102 100 101 102 99 100 100
46 54 61 66 69 73 74 73 77 83 85 86 89 92 95 97 96 96 97 97 96 97 96 92 89 89 91 94 96 95 93 90 86 82 79 77 78 83 88 87 80 75 72 74 81 79 73 78 87 91 94 96 99 101 99 98 98 95 97 100 100 101 96
54 61 66 70 72 77 79 76 78 84 87 87 89 94 98 100 99 99 99 99 100 100 98 94 90 88 92 95 94 91 86 79 77 79 83 89 93 96 100 97 89 83 78 76 79 77 72 76 83 85 84 83 82 80 77 80 82 82 86 92 93 90 84
61 65 69 72 74 79 82 82 81 85 88 88 88 92 98 100 100 100 99 99 100 99 97 94 88 88 93 93 89 88 86 81 84 92 97 100 101 101 101 100 97 96 95 94 95 93 87 79 72 66 62 59 58 59 61 67 73 77 82 84 81 76 78
66 69 69 71 76 80 84 86 85 85 87 88 87 89 96 101 101 100 100 101 100 99 97 92 88 90 92 89 89 92 90 85 88 93 96 100 103 102 101 101 100 100 101 101 101 101 100 95 87 79 72 66 63 64 67 69 72 76 77 76 72 68 73
68 70 69 72 79 82 84 87 88 85 85 86 86 85 90 98 100 100 101 100 97 96 96 93 90 89 88 88 90 86 79 80 85 87 90 99 103 101 99 100 101 101 101 101 101 100 101 100 98 95 91 87 83 78 76 74 73 72 69 67 67 65 68
67 70 70 73 78 80 82 86 88 85 82 83 83 80 84 93 98 99 101 100 97 98 99 97 94 92 90 88 83 77 78 88 93 90 94 102 103 100 100 101 102 101 100 100 100 100 101 101 100 97 93 89 84 78 73 69 66 63 63 64 67 71 76
66 70 70 69 71 74 78 83 84 82 79 80 81 80 81 86 89 93 98 100 100 102 102 101 101 99 94 87 81 84 92 99 98 95 98 101 100 101 102 100 100 101 101 101 101 100 99 97 94 90 84 78 73 68 63 62 61 62 66 72 76 80 85
65 69 67 65 63 65 74 81 80 78 78 79 81 82 81 80 79 83 88 92 96 100 100 100 99 96 92 90 92 97 101 101 100 100 101 100 100 101 100 98 99 100 98 96 94 91 88 86 81 78 74 69 64 62 62 64 67 70 76 82 84 84 85
63 66 65 64 62 64 73 80 78 77 80 82 83 82 81 76 71 72 77 79 81 83 83 84 85 87 91 96 99 100 100 98 97 97 96 96 95 94 92 90 89 88 86 83 81 79 77 75 72 70 67 63 62 64 68 73 76 79 83 88 89 87 84
64 66 66 65 65 69 76 80 78 78 80 80 80 79 75 72 70 72 75 75 74 73 73 75 78 81 86 86 84 83 84 83 80 80 80 80 80 79 80 79 79 81 81 80 79 78 76 75 74 71 68 66 67 72 76 82 85 86 85 87 90 88 81
65 67 68 68 70 75 81 82 80 78 78 80 83 81 77 78 81 82 80 78 77 79 82 86 89 92 92 87 79 76 76 76 76 78 79 80 81 83 85 88 91 92 90 87 84 81 80 79 77 73 70 71 75 78 82 89 93 90 86 87 92 91 83
68 69 69 72 76 80 84 83 79 80 85 90 92 90 89 91 92 89 88 90 91 92 94 96 97 97 95 91 86 85 86 87 88 90 90 90 92 94 97 98 96 92 88 86 84 84 84 82 79 75 75 79 83 84 88 94 96 93 89 89 94 95 88
70 69 73 80 85 89 91 88 83 87 94 98 97 96 98 100 100 98 99 100 100 99 100 99 97 96 95 95 95 95 96 96 96 96 96 97 99 100 98 94 89 85 84 85 86 88 87 85 82 81 82 85 87 89 94 97 96 94 92 91 94 94 90
73 77 86 94 96 97 99 97 94 97 100 100 99 99 101 102 101 101 102 101 101 101 101 100 99 99 100 100 100 100 99 99 99 99 100 100 98 95 91 87 84 85 86 88 90 90 88 86 86 86 87 90 91 93 96 97 97 96 95 94 95 93 90
78 84 95 102 101 100 101 100 99 100 101 101 100 100 101 101 101 101 102 101 101 101 101 101 101 101 100 100 100 100 100 100 101 101 99 96 93 90 88 88 87 87 88 91 92 92 90 89 89 90 92 93 95 97 98 99 98 97 96 96 97 95 92
80 83 89 94 96 99 101 101 101 101 101 101 100 100 101 102 99 99 101 101 101 100 101 101 101 101 101 101 101 101 101 101 100 98 96 94 92 91 91 89 88 88 90 92 93 93 93 91 92 94 96 96 98 100 100 100 100 98 96 97 97 96 97
82 82 83 83 84 87 92 96 101 102 101 102 102 102 103 101 96 95 98 100 101 101 102 102 101 101 101 101 100 99 98 98 97 96 96 96 95 93 91 89 89 90 90 92 95 97 97 96 96 98 99 99 100 102 102 101 101 98 97 98 97 96 98
80 80 80 77 75 76 82 91 98 101 101 101 100 99 99 98 96 96 99 101 101 101 101 101 100 100 99 99 98 97 97 97 98 99 98 96 94 91 90 88 88 90 91 93 97 99 99 100 101 102 102 102 101 102 103 102 101 99 97 98 98 98 98
76 76 77 75 72 73 82 92 99 99 98 98 98 98 98 99 99 100 100 100 101 101 101 100 99 99 99 99 99 100 99 99 98 97 95 93 91 90 89 88 88 90 91 94 97 99 100 102 104 105 106 106 104 103 103 102 100 99 99 100 100 100 99
74 74 75 73 72 78 89 98 101 100 99 100 101 101 100 100 100 100 100 100 100 100 101 101 100 101 101 101 100 99 97 96 95 93 92 91 89 88 88 88 89 90 91 94 97 99 101 103 105 106 107 108 106 106 105 104 102 101 102 103 103 101 100
Wind_Speed
32 32 32 32 33 33 32 32 31 30 30 31 32 33 32 32 31 30 30 30 31 31 31 31 31 31 29 28 28 28 28 28 28 28 28 27 28 28 27 27 28 34 44 48 44 43 43 42 42 43 42 42 43 42 40 40 40 39 39 39 39 39 38
32 32 33 33 34 34 33 33 32 31 31 32 33 33 33 32 31 31 31 31 32 33 32 33 33 32 30 29 29 29 29 29 29 28 29 28 27 28 27 26 28 32 39 47 46 44 43 42 41 43 42 41 43 43 41 41 41 39 39 38 38 39 39
32 33 34 34 35 35 34 33 32 32 32 33 34 34 33 32 32 31 31 32 33 34 34 34 34 33 31 29 30 30 29 29 29 29 29 29 27 27 27 26 28 32 36 43 46 44 43 42 42 42 41 41 43 43 42 42 41 40 39 38 38 38 38
33 34 35 35 36 36 35 34 33 33 33 34 34 34 33 32 32 32 32 33 34 35 35 35 35 34 31 30 30 31 30 30 30 29 29 29 28 28 29 28 29 32 35 39 44 44 43 42 42 43 42 41 42 42 41 41 41 40 39 38 36 36 36
33 34 35 36 36 36 35 34 34 34 35 35 34 34 34 33 33 33 33 34 35 36 36 35 35 33 31 30 31 31 31 30 29 29 29 30 29 29 29 29 30 32 34 37 42 44 43 41 42 43 43 41 41 42 41 40 39 38 38 36 34 33 33
34 34 35 36 35 35 35 35 35 35 35 35 35 35 35 34 34 35 35 36 37 36 35 34 34 32 31 30 31 31 31 30 30 30 30 30 31 30 30 30 31 32 34 37 40 43 43 42 41 42 43 40 37 38 39 39 38 36 34 33 34 33 31
34 35 35 35 35 35 35 35 35 36 36 36 36 36 36 35 35 36 37 37 36 34 33 33 32 31 31 30 31 31 31 32 31 32 32 32 31 30 30 31 32 32 34 37 40 41 42 41 40 40 41 39 36 36 36 36 36 36 34 33 33 33 31
35 35 35 35 36 36 36 36 36 36 36 36 36 36 36 37 37 37 37 35 34 32 31 31 31 31 31 31 31 32 32 33 33 33 33 33 31 31 31 32 32 33 35 37 39 41 40 39 38 38 38 37 36 36 36 33 35 39 39 36 34 34 33
35 35 35 35 36 36 36 36 36 37 37 37 37 37 37 37 36 36 35 34 33 32 32 32 32 32 32 32 33 33 33 33 33 34 35 34 32 31 31 31 32 33 34 36 38 39 39 38 38 37 37 37 37 37 38 37 37 40 40 38 38 36 33
35 35 36 36 36 36 36 36 37 37 36 36 37 36 36 36 35 35 35 36 36 36 35 34 34 34 34 34 34 34 34 34 34 34 35 34 32 31 31 32 33 34 35 36 38 40 39 38 40 39 38 39 40 38 39 39 39 40 40 39 41 39 32
35 35 36 36 36 36 36 36 36 36 36 36 35 33 33 34 35 36 36 38 38 38 37 36 36 36 35 35 35 35 35 35 35 34 33 32 31 31 31 33 35 36 37 38 40 41 40 40 41 40 40 41 41 40 39 39 39 40 41 40 41 43 36
35 36 35 35 36 36 36 36 35 35 35 35 33 31 31 33 35 36 37 38 38 37 36 35 35 36 36 36 36 36 36 36 35 34 33 32 31 31 31 33 34 37 39 40 41 42 41 40 39 40 41 41 41 40 39 39 39 40 42 41 41 44 41
35 35 35 35 35 36 36 36 35 34 35 35 33 31 30 32 34 35 37 37 36 35 34 34 34 36 37 38 38 37 37 37 36 36 34 33 32 32 32 32 32 33 36 39 40 42 42 40 38 40 41 39 38 39 40 40 41 41 41 42 41 43 44
34 34 34 34 35 36 37 37 35 34 34 34 33 31 30 31 33 34 36 36 36 36 35 35 37 38 39 39 39 38 37 37 36 35 34 33 33 33 32 32 31 30 31 33 36 39 40 39 37 38 39 36 35 37 40 41 41 41 42 44 43 43 44
33 33 33 34 34 36 37 37 35 33 33 33 32 31 30 31 33 34 36 37 37 38 38 39 39 39 40 39 39 38 36 35 35 34 33 33 33 33 31 31 30 30 29 30 31 33 35 35 34 35 36 35 34 36 38 38 39 40 39 40 40 39 38
33 33 33 34 35 36 38 38 35 33 33 33 32 31 31 32 34 35 36 38 39 39 39 39 39 39 39 38 38 36 34 32 32 32 32 33 33 32 32 31 30 29 30 30 31 32 33 33 34 35 35 34 33 32 32 31 30 29 28 29 31 32 33
32 33 33 34 35 36 38 38 36 34 33 33 32 31 31 32 33 34 35 36 36 37 37 37 38 37 37 36 35 33 31 30 30 31 32 34 34 33 33 32 30 29 29 30 30 32 34 35 35 35 34 33 31 29 29 30 31 31 30 30 31 33 37
33 33 34 34 35 36 37 38 36 34 33 32 31 30 30 31 32 34 34 35 36 37 37 36 35 33 33 33 32 31 30 29 29 29 31 32 33 34 36 35 32 31 32 32 32 34 35 36 36 35 36 36 35 35 37 38 40 39 37 36 36 38 42
33 34 34 34 35 36 37 38 37 34 33 32 31 30 29 30 32 34 34 34 35 35 34 33 32 30 29 30 30 29 29 28 27 29 31 32 33 35 36 35 33 33 34 35 34 35 36 37 38 39 39 40 40 40 40 40 41 40 39 40 41 42 41
34 35 35 35 35 35 36 37 37 34 32 31 30 29 27 28 30 31 32 32 32 33 33 33 31 28 27 27 28 28 29 28 27 29 31 31 33 34 34 33 32 32 33 34 35 36 36 38 38 39 39 40 40 41 41 40 41 42 42 43 45 46 43
34 35 36 35 35 35 35 35 35 34 31 30 29 28 26 26 28 30 30 31 31 32 32 31 29 28 28 28 29 30 30 28 26 26 28 29 31 32 31 30 29 28 29 31 33 34 35 35 36 37 37 38 39 40 40 41 43 44 46 46 47 48 48
34 35 35 35 34 34 34 34 33 32 30 29 28 26 24 24 26 26 27 28 30 31 32 32 31 30 29 29 30 31 29 26 24 25 28 29 29 29 30 30 29 29 29 31 33 35 36 37 38 39 40 41 42 42 42 43 44 46 47 47 47 46 46
33 34 35 35 34 33 33 32 30 29 29 28 25 23 21 21 23 23 24 27 30 32 32 32 31 31 31 31 30 29 26 24 25 27 29 28 27 29 31 33 33 34 34 36 38 40 42 42 42 43 44 45 45 45 44 44 44 44 43 43 43 42 43
33 33 35 35 35 33 31 30 29 27 25 23 21 19 19 21 22 22 24 28 31 32 32 32 32 32 31 28 26 24 23 25 28 29 29 29 29 32 34 35 37 39 40 42 44 44 46 46 45 45 45 45 45 44 44 43 42 41 39 38 39 40 41
32 33 34 35 35 33 31 29 27 24 20 18 18 19 21 23 24 24 24 26 29 30 30 30 29 27 25 24 24 25 27 29 30 31 32 33 34 36 37 38 40 41 42 44 45 44 45 45 43 42 42 42 42 41 40 39 39 38 37 36 37 38 39
33 34 34 34 34 33 31 28 25 22 19 18 20 23 24 25 23 21 20 21 23 25 25 25 25 25 26 27 29 30 31 31 32 32 33 34 34 35 36 36 37 38 39 40 41 41 42 42 40 39 39 38 38 38 37 36 36 37 36 35 35 36 38
33 34 34 34 32 31 29 27 25 24 23 23 25 26 25 23 19 18 18 20 23 24 25 26 27 27 28 30 30 30 31 31 31 31 32 32 33 33 34 34 35 37 39 41 42 42 42 40 38 36 36 35 35 35 34 33 34 35 36 34 33 34 36
33 34 33 32 30 29 29 29 28 27 27 28 28 26 23 21 21 22 24 25 26 26 26 27 27 28 29 30 31 31 31 31 32 32 32 33 33 34 34 36 37 39 41 41 41 41 39 37 35 34 34 33 33 33 32 31 32 33 33 32 30 32 35
33 33 32 31 30 29 30 32 32 31 31 30 28 26 26 28 29 29 29 28 26 25 26 27 28 29 30 30 31 32 32 32 32 32 33 33 34 35 37 38 39 39 38 37 36 35 35 33 33 33 32 32 32 31 31 30 30 30 30 30 30 32 34
32 32 31 31 32 31 32 34 34 32 30 27 25 26 28 29 29 29 29 30 27 26 27 29 29 29 30 30 31 31 31 32 32 33 35 36 36 37 38 38 37 35 33 32 31 31 31 31 31 31 30 30 30 30 30 29 29 29 28 28 29 32 34
29 28 26 27 30 31 31 32 32 30 28 28 29 29 28 26 25 26 29 32 31 29 29 29 29 29 30 29 30 31 32 33 34 36 37 38 38 38 37 35 33 31 30 30 30 29 29 29 29 30 29 29 29 30 30 29 28 28 27 27 28 31 34
28 27 26 27 28 28 29 30 29 29 29 29 29 28 25 24 26 25 26 31 33 32 31 31 30 30 31 31 32 34 35 36 37 38 38 38 38 37 35 32 30 28 28 29 29 28 28 27 28 28 28 28 28 29 29 29 28 28 27 27 29 31 32
27 27 28 29 29 28 28 29 29 30 31 30 29 29 28 30 31 28 26 31 34 34 33 33 32 33 33 34 36 37 37 38 38 38 38 38 37 35 33 31 29 27 27 28 28 28 27 26 26 27 27 27 27 27 28 29 28 27 26 27 29 30 31
27 26 27 29 30 29 28 27 27 29 30 31 32 31 30 29 28 24 22 27 31 32 32 33 34 35 36 37 37 38 39 39 39 37 36 35 33 32 30 29 27 26 26 27 27 27 26 25 25 25 26 27 27 27 28 28 27 27 26 27 29 30 30
31 28 27 27 28 29 28 28 27 28 28 28 28 25 22 22 24 23 24 28 32 33 34 35 36 37 37 37 38 38 38 37 36 34 32 31 30 29 28 27 26 26 25 26 26 26 25 24 24 24 25 26 27 27 27 27 27 26 26 27 28 29 29
35 32 29 28 27 26 27 28 28 28 27 26 22 19 18 23 28 29 30 31 33 34 35 36 37 37 37 37 37 36 35 33 32 30 29 28 27 27 26 26 25 25 24 25 25 25 24 23 23 23 24 25 26 26 26 27 26 25 25 26 27 28 29
Wind_Direction
291 291 291 291 291 291 292 291 291 290 289 288 288 288 289 289 288 284 281 281 282 284 286 287 289 288 285 284 282 280 278 277 277 276 274 272 271 270 269 270 269 270 278 285 287 289 292 296 298 299 300 300 301 303 305 306 306 306 305 304 302 300 298
289 290 290 290 290 290 291 291 290 289 288 287 287 288 288 288 287 283 281 280 282 284 286 288 289 288 286 284 282 280 278 277 276 274 273 270 269 271 270 270 271 273 277 283 288 290 293 295 297 298 300 301 301 303 306 306 305 306 304 302 300 299 297
288 288 288 289 289 290 290 290 290 288 287 286 286 287 288 287 285 282 281 281 282 284 286 288 289 287 286 284 281 279 277 276 275 273 271 270 269 270 271 271 272 273 276 281 286 290 292 295 297 297 299 300 300 302 305 304 303 304 302 300 300 299 298
286 287 288 288 289 290 290 290 288 287 286 285 285 286 287 287 284 281 281 281 282 284 286 287 287 286 285 283 280 278 276 275 274 272 271 271 271 271 273 274 274 274 276 280 284 287 290 294 295 296 298 300 300 302 303 303 302 302 301 301 301 301 298
285 286 287 288 289 289 289 288 287 286 285 284 285 286 287 286 283 282 282 282 283 284 286 287 286 285 284 281 278 276 275 274 273 272 271 271 272 273 274 275 275 276 277 279 282 286 289 291 293 295 297 298 300 301 302 301 300 299 301 301 301 299 298
285 286 287 287 288 288 288 287 286 285 284 284 284 286 286 285 283 282 282 282 284 286 286 285 283 282 280 278 276 275 274 274 272 272 272 272 273 275 275 276 276 277 278 278 281 284 287 288 290 293 295 297 299 301 301 301 301 300 299 299 299 298 297
286 287 287 288 288 288 287 286 285 284 284 283 284 285 285 284 283 282 283 284 286 286 284 283 281 280 278 275 274 274 274 274 273 273 272 273 274 275 276 276 277 277 278 278 280 281 283 286 289 291 293 296 299 298 298 301 304 302 299 297 299 299 298
287 287 287 288 288 287 286 285 284 284 284 283 284 283 283 283 283 284 286 286 286 284 282 280 280 278 276 274 272 272 272 273 273 274 274 274 275 277 277 278 278 278 277 278 279 281 283 286 288 289 292 296 297 295 296 302 304 301 300 300 299 297 296
286 287 287 287 287 286 285 285 284 284 285 284 284 284 284 285 286 287 288 287 285 283 280 279 278 276 275 273 272 272 272 272 273 274 275 277 278 278 278 278 277 277 278 279 280 281 282 283 284 287 291 294 294 293 297 301 300 298 299 301 299 295 293
285 286 286 287 286 286 285 284 284 285 285 285 285 287 288 289 289 289 289 288 287 286 284 282 280 278 277 275 273 273 273 274 276 277 278 279 280 281 280 280 279 278 279 279 279 280 281 279 280 285 288 290 292 294 295 296 296 296 298 299 297 295 293
285 285 286 286 286 286 285 285 286 286 286 285 286 287 287 287 286 286 285 284 285 285 285 285 284 283 281 279 277 277 277 278 279 279 280 280 279 278 275 275 276 276 276 275 275 277 278 276 277 283 287 288 290 292 292 294 294 293 292 292 292 292 292
284 284 285 286 286 286 286 287 287 287 286 286 285 283 282 281 281 280 279 279 280 281 281 281 281 281 281 280 280 280 280 280 280 279 279 279 277 274 269 268 270 272 272 271 272 274 274 274 277 281 283 285 288 290 291 293 291 289 287 286 286 288 291
282 283 285 286 287 288 288 288 288 287 287 286 285 282 278 278 278 278 278 278 278 278 279 278 278 278 278 278 278 278 280 280 281 282 281 280 278 274 272 271 271 269 267 267 268 270 271 272 273 276 280 284 288 289 288 287 288 288 286 284 283 286 292
282 284 286 287 288 289 288 289 289 289 289 288 286 284 281 280 279 277 277 276 275 274 274 274 274 275 277 278 278 278 280 281 282 282 281 280 279 277 276 275 273 270 267 265 265 268 271 273 274 276 280 284 286 285 283 283 286 288 286 285 286 289 291
284 286 287 288 289 289 289 290 292 292 291 289 287 286 283 280 277 276 275 274 273 272 272 272 273 275 276 277 278 279 280 281 281 281 281 280 280 279 279 277 276 275 274 272 269 269 271 274 276 277 280 283 283 284 286 288 290 290 289 288 288 289 290
286 287 289 289 290 290 291 292 294 293 291 290 288 286 283 279 276 274 273 272 272 272 272 272 273 274 275 277 278 279 280 281 282 281 281 281 281 281 280 279 278 278 277 276 273 271 273 276 279 282 284 285 286 286 289 292 292 291 291 289 288 288 288
288 288 289 290 291 292 293 294 295 295 293 291 290 288 285 281 279 277 276 275 275 274 273 274 274 275 276 277 278 279 280 280 280 281 282 283 283 282 281 280 281 279 276 272 270 272 277 279 281 282 281 279 277 276 280 286 286 285 287 287 286 285 285
289 290 291 292 293 294 294 295 296 296 295 293 291 288 283 279 277 275 274 273 273 274 275 276 277 277 277 277 278 280 281 282 283 282 281 281 281 281 281 283 285 284 281 279 276 274 275 274 272 272 272 271 270 272 277 282 284 286 288 288 286 285 286
290 292 293 294 294 294 295 295 297 297 295 293 290 287 282 279 277 276 276 276 277 278 278 277 277 276 276 277 280 282 283 285 286 284 282 282 282 281 281 283 286 285 283 281 279 276 274 273 272 272 273 273 275 277 279 281 283 286 288 287 287 286 286
292 294 295 295 296 296 296 296 297 297 296 293 290 286 280 276 274 274 276 277 277 277 277 278 279 277 275 276 278 278 278 282 282 280 280 280 279 278 281 284 283 279 275 273 271 270 271 273 274 274 273 274 276 278 280 282 283 285 286 285 286 285 283
294 295 296 297 297 297 297 297 297 297 295 291 288 284 277 271 270 271 273 276 277 278 280 280 279 277 277 276 275 274 276 280 279 277 275 275 275 277 280 280 274 269 267 266 266 267 268 269 271 272 273 274 276 277 279 281 282 283 283 283 282 282 281
295 296 297 299 299 299 299 298 297 296 294 290 286 282 275 268 268 272 275 277 279 280 281 282 282 282 281 279 277 279 282 283 280 275 272 271 272 273 273 270 269 270 270 269 268 270 271 273 275 277 278 280 281 281 281 281 281 280 279 278 278 277 277
296 298 299 300 301 302 301 300 298 295 292 289 285 280 272 266 267 271 272 272 273 275 278 282 283 283 281 280 282 286 287 283 276 270 268 268 268 268 267 269 272 274 275 275 276 277 279 280 281 283 284 285 286 286 285 284 282 280 278 276 275 274 274
297 298 300 301 303 304 304 302 298 294 290 286 281 275 270 268 269 273 271 269 270 272 273 275 276 279 282 284 285 283 278 272 268 266 266 267 267 267 269 272 274 275 277 279 280 280 281 282 283 284 285 286 286 286 286 285 284 282 280 279 278 276 275
298 299 300 302 304 306 305 301 297 294 288 280 275 275 275 276 278 278 274 270 269 270 271 273 275 278 281 279 273 268 265 264 264 266 268 269 269 271 273 274 275 276 278 278 279 280 281 282 283 284 284 284 285 285 286 286 285 284 284 284 284 283 281
298 299 301 303 304 305 304 300 296 291 287 283 283 283 284 286 287 285 279 274 273 274 275 277 278 278 275 271 268 267 266 267 268 270 271 273 274 275 276 277 278 279 280 281 282 283 283 284 284 284 283 282 283 285 286 288 288 287 287 288 290 289 285
297 299 301 303 304 303 301 298 295 294 296 297 294 293 296 298 296 292 289 285 283 283 282 281 279 276 272 271 271 272 272 273 274 275 276 276 277 278 279 282 284 286 287 288 288 287 287 286 285 284 283 283 285 286 287 289 289 289 290 292 294 293 289
296 298 300 303 303 303 302 300 300 302 304 303 301 303 306 304 301 299 297 293 290 288 284 279 275 271 269 269 271 272 273 274 275 276 277 279 280 282 283 285 287 288 287 287 286 285 285 284 283 283 283 285 286 287 288 289 289 290 291 294 295 294 292
295 298 302 304 304 305 304 303 303 305 305 304 306 308 307 303 303 304 301 297 293 287 280 275 273 272 270 270 271 271 272 273 274 275 277 279 281 284 286 287 288 288 287 285 282 280 280 280 280 281 283 285 287 287 288 289 289 291 292 293 293 293 292
298 302 304 304 303 302 300 299 300 301 299 297 296 296 295 295 297 297 294 292 289 285 280 278 277 276 274 273 272 272 272 274 275 277 279 282 284 286 288 290 290 289 287 284 280 278 278 279 280 281 284 286 287 288 288 288 289 291 292 292 293 293 292
296 298 295 291 290 291 291 291 293 293 290 287 287 288 288 286 281 280 282 283 281 279 279 279 278 277 276 275 274 274 276 278 280 283 286 288 290 291 292 292 291 289 286 283 281 279 279 280 281 283 285 286 287 288 289 289 290 292 291 291 292 293 293
292 291 288 282 280 280 280 281 282 282 283 284 285 285 283 277 270 268 273 277 277 277 277 277 277 276 276 275 276 278 281 284 286 288 291 292 293 294 294 292 291 288 285 282 281 281 281 280 280 282 283 284 286 287 288 289 290 291 291 291 292 293 294
289 290 289 285 283 281 279 277 276 276 277 278 277 275 273 274 273 272 272 274 275 276 276 276 275 275 276 277 279 282 284 287 288 290 292 293 293 293 293 291 290 287 284 282 281 281 281 281 281 281 282 283 284 285 286 288 290 292 292 292 292 293 295
293 291 290 289 288 287 286 284 281 278 277 275 274 274 275 278 279 277 271 268 269 272 273 274 275 277 278 280 281 283 286 288 289 291 291 291 291 292 292 290 289 287 284 281 280 281 281 280 280 280 281 282 282 283 285 287 290 292 292 292 293 295 296
300 299 296 294 293 293 294 293 291 287 285 282 282 286 290 288 282 274 267 265 267 270 272 273 275 276 278 279 281 284 286 287 288 289 290 291 291 292 291 290 289 288 285 282 281 281 281 280 280 279 279 280 282 283 285 287 290 291 291 292 294 295 296
302 303 301 299 298 298 298 296 294 293 292 291 291 293 288 278 272 270 268 266 266 266 268 269 272 274 277 279 282 284 285 286 288 289 290 292 293 293 292 291 290 288 286 283 282 281 281 280 279 278 278 279 280 282 285 287 290 291 291 293 295 296 297